EW9800 Weather Reports


time (UTC)temp
C
wind
direction
speed
KPH
gust
KPH
rain 1hr
cm
rain 24hr
cm
rain mn
cm
humidity
%
barometer
mb
20260506002509 24 233 3.2 9.7 0.00 0.00 0.00 36 1009.2
20260506002009 24 202 1.6 8.0 0.00 0.00 0.00 35 1009.0
20260506001530 24 162 1.6 8.0 0.00 0.00 0.00 36 1008.9
20260506001009 24 149 1.6 4.8 0.00 0.00 0.00 36 1008.9
20260506000508 24 160 1.6 8.0 0.00 0.00 0.00 35 1008.9
20260506000029 24 249 1.6 8.0 0.00 0.00 0.00 35 1008.8
20260505235508 25 175 0.0 14.5 0.00 0.00 0.00 34 1008.7
20260505235008 25 220 3.2 14.5 0.00 0.00 0.00 34 1008.7
20260505234514 25 214 3.2 14.5 0.00 0.00 0.00 34 1008.7
20260505234006 25 175 1.6 6.4 0.00 0.00 0.00 34 1008.8
20260505233508 25 217 1.6 6.4 0.00 0.00 0.00 33 1008.7
20260505233008 25 158 1.6 11.3 0.00 0.00 0.00 33 1008.7
20260505232506 25 149 0.0 11.3 0.00 0.00 0.00 33 1008.7
20260505232003 25 233 3.2 11.3 0.00 0.00 0.00 32 1008.6
20260505231510 25 246 3.2 8.0 0.00 0.00 0.00 32 1008.3
20260505231004 25 157 3.2 16.1 0.00 0.00 0.00 32 1008.3
20260505230504 25 133 4.8 16.1 0.00 0.00 0.00 32 1008.5
20260505230006 25 148 3.2 14.5 0.00 0.00 0.00 30 1008.3
20260505225505 26 158 3.2 11.3 0.00 0.00 0.00 31 1008.2
20260505225002 26 157 1.6 12.9 0.00 0.00 0.00 31 1008.3
20260505224503 26 185 4.8 12.9 0.00 0.00 0.00 31 1008.1
20260505224003 26 166 3.2 12.9 0.00 0.00 0.00 30 1008.0
20260505223502 26 158 3.2 12.9 0.00 0.00 0.00 30 1007.9
20260505223004 26 150 1.6 14.5 0.00 0.00 0.00 30 1007.9
20260505222502 26 258 3.2 14.5 0.00 0.00 0.00 30 1008.0
20260505222003 26 110 1.6 12.9 0.00 0.00 0.00 30 1007.8
20260505221506 26 133 3.2 16.1 0.00 0.00 0.00 30 1007.9
20260505221004 26 215 3.2 16.1 0.00 0.00 0.00 29 1007.9
20260505220504 26 228 3.2 9.7 0.00 0.00 0.00 29 1007.7
20260505220004 27 151 3.2 9.7 0.00 0.00 0.00 28 1007.8
20260505215504 27 116 1.6 14.5 0.00 0.00 0.00 29 1007.7
20260505215004 26 167 4.8 14.5 0.00 0.00 0.00 28 1007.9
20260505214512 26 62 3.2 12.9 0.00 0.00 0.00 30 1007.9
20260505214003 26 155 1.6 16.1 0.00 0.00 0.00 30 1007.7
20260505213506 26 230 1.6 16.1 0.00 0.00 0.00 30 1007.7
20260505213008 26 162 4.8 14.5 0.00 0.00 0.00 29 1007.4
20260505212502 26 158 3.2 16.1 0.00 0.00 0.00 30 1007.4
20260505212002 27 218 3.2 16.1 0.00 0.00 0.00 30 1007.4
20260505211503 27 266 3.2 16.1 0.00 0.00 0.00 30 1007.2
20260505211003 27 175 4.8 16.1 0.00 0.00 0.00 31 1007.3
20260505210503 27 237 4.8 16.1 0.00 0.00 0.00 30 1007.3
20260505210005 27 205 3.2 12.9 0.00 0.00 0.00 30 1007.2
20260505205503 27 195 3.2 14.5 0.00 0.00 0.00 30 1007.2
20260505205002 27 242 4.8 14.5 0.00 0.00 0.00 31 1007.1
20260505204509 26 175 6.4 20.9 0.00 0.00 0.00 30 1007.3
20260505204006 26 248 4.8 20.9 0.00 0.00 0.00 30 1007.3
20260505203502 27 221 8.0 20.9 0.00 0.00 0.00 29 1007.2
20260505203025 27 194 4.8 17.7 0.00 0.00 0.00 29 1007.2
20260505202506 27 175 4.8 14.5 0.00 0.00 0.00 30 1007.4
20260505202008 27 143 6.4 16.1 0.00 0.00 0.00 30 1007.5
20260505201504 27 156 6.4 16.1 0.00 0.00 0.00 30 1007.7
20260505201002 28 136 1.6 14.5 0.00 0.00 0.00 30 1007.6
20260505200502 28 207 3.2 14.5 0.00 0.00 0.00 29 1007.5
20260505200004 28 262 3.2 16.1 0.00 0.00 0.00 30 1007.5
20260505195503 28 228 3.2 16.1 0.00 0.00 0.00 30 1007.3
20260505195003 28 201 1.6 16.1 0.00 0.00 0.00 30 1007.7
20260505194504 28 233 4.8 16.1 0.00 0.00 0.00 30 1007.5
20260505194003 28 197 4.8 17.7 0.00 0.00 0.00 30 1007.7
20260505193503 27 145 4.8 17.7 0.00 0.00 0.00 30 1007.7
20260505193012 28 185 6.4 17.7 0.00 0.00 0.00 30 1007.7
20260505192505 28 143 4.8 17.7 0.00 0.00 0.00 30 1007.9
20260505192007 28 204 4.8 19.3 0.00 0.00 0.00 29 1008.0
20260505191518 28 161 4.8 19.3 0.00 0.00 0.00 30 1008.0
20260505191003 28 198 3.2 17.7 0.00 0.00 0.00 31 1007.7
20260505190509 27 145 4.8 17.7 0.00 0.00 0.00 31 1008.2
20260505190030 28 164 3.2 17.7 0.00 0.00 0.00 31 1008.2
20260505185503 28 206 4.8 17.7 0.00 0.00 0.00 32 1008.2
20260505185005 28 166 6.4 16.1 0.00 0.00 0.00 31 1008.3
20260505184508 28 147 3.2 12.9 0.00 0.00 0.00 32 1008.4
20260505184004 29 189 3.2 12.9 0.00 0.00 0.00 32 1008.7
20260505183503 28 245 1.6 11.3 0.00 0.00 0.00 35 1008.7
20260505183008 28 155 4.8 11.3 0.00 0.00 0.00 32 1008.7
20260505182503 28 158 3.2 9.7 0.00 0.00 0.00 34 1008.8
20260505182003 28 180 3.2 14.5 0.00 0.00 0.00 33 1008.8
20260505181514 28 185 4.8 19.3 0.00 0.00 0.00 34 1008.9
20260505181003 28 171 4.8 19.3 0.00 0.00 0.00 34 1008.9
20260505180506 28 139 3.2 8.0 0.00 0.00 0.00 34 1009.0
20260505180018 28 242 1.6 20.9 0.00 0.00 0.00 37 1009.0
20260505175504 27 124 4.8 20.9 0.00 0.00 0.00 35 1009.1
20260505175014 27 168 6.4 16.1 0.00 0.00 0.00 35 1009.0
20260505174522 27 190 3.2 20.9 0.00 0.00 0.00 37 1009.2
20260505174003 27 175 1.6 20.9 0.00 0.00 0.00 37 1009.0
20260505173503 27 185 3.2 9.7 0.00 0.00 0.00 37 1009.1
20260505173008 27 155 1.6 9.7 0.00 0.00 0.00 38 1009.2
20260505172504 28 224 3.2 12.9 0.00 0.00 0.00 36 1009.2
20260505172003 27 197 4.8 12.9 0.00 0.00 0.00 37 1009.4
20260505171511 27 260 1.6 12.9 0.00 0.00 0.00 39 1009.5
20260505171005 27 148 4.8 12.9 0.00 0.00 0.00 37 1009.6
20260505170506 27 198 1.6 12.9 0.00 0.00 0.00 38 1009.5
20260505170020 27 148 3.2 12.9 0.00 0.00 0.00 39 1009.6
20260505165506 26 151 3.2 12.9 0.00 0.00 0.00 40 1009.7
20260505165006 26 156 3.2 12.9 0.00 0.00 0.00 43 1009.7
20260505164520 26 175 3.2 14.5 0.00 0.00 0.00 40 1009.8
20260505164008 26 167 3.2 14.5 0.00 0.00 0.00 41 1009.8
20260505163509 26 198 3.2 14.5 0.00 0.00 0.00 39 1010.0
20260505163026 26 168 4.8 11.3 0.00 0.00 0.00 40 1009.9
20260505162506 26 171 3.2 9.7 0.00 0.00 0.00 40 1010.0
20260505162005 26 218 4.8 9.7 0.00 0.00 0.00 38 1010.1
20260505161509 26 125 3.2 6.4 0.00 0.00 0.00 41 1010.2
20260505161004 26 185 1.6 17.7 0.00 0.00 0.00 42 1010.2
20260505160510 25 180 3.2 17.7 0.00 0.00 0.00 42 1010.2
20260505153021 23 229 1.6 14.5 0.00 0.00 0.00 46 1010.7
20260505152509 23 161 3.2 14.5 0.00 0.00 0.00 46 1010.8
20260505152009 23 175 4.8 9.7 0.00 0.00 0.00 46 1010.7
20260505151532 24 129 0.0 6.4 0.00 0.00 0.00 46 1010.7
20260505151008 23 105 0.0 6.4 0.00 0.00 0.00 47 1010.7
20260505150507 23 142 1.6 9.7 0.00 0.00 0.00 47 1010.8
20260505140503 21 148 3.2 11.3 0.00 0.00 0.00 50 1011.2
20260505125005 17 142 0.0 6.4 0.00 0.00 0.00 66 1011.1
20260505124512 16 175 1.6 6.4 0.00 0.00 0.00 69 1011.0
20260505124004 16 185 0.0 6.4 0.00 0.00 0.00 72 1011.1
20260505123505 15 166 1.6 4.8 0.00 0.00 0.00 74 1011.1
20260505123015 15 156 0.0 4.8 0.00 0.00 0.00 76 1011.0
20260505122503 15 138 0.0 4.8 0.00 0.00 0.00 78 1011.1
20260505122008 13 156 0.0 6.4 0.00 0.00 0.00 79 1011.2
20260505121526 13 119 1.6 6.4 0.00 0.00 0.00 80 1011.3
20260505121009 13 137 1.6 4.8 0.00 0.00 0.00 81 1011.4
20260505120508 12 134 1.6 3.2 0.00 0.00 0.00 84 1011.4
20260505120052 12 161 0.0 3.2 0.00 0.00 0.00 85 1011.4
20260505115506 12 175 0.0 1.6 0.00 0.00 0.00 86 1011.4
20260505115007 12 175 0.0 3.2 0.00 0.00 0.00 86 1011.3
20260505114510 11 175 0.0 3.2 0.00 0.00 0.00 85 1011.4
20260505114004 11 175 0.0 3.2 0.00 0.00 0.00 85 1011.3
20260505113505 11 254 0.0 3.2 0.00 0.00 0.00 84 1011.2
20260505113012 11 254 1.6 4.8 0.00 0.00 0.00 84 1011.1
20260505112503 11 320 0.0 4.8 0.00 0.00 0.00 84 1011.0
20260505112007 11 359 1.6 4.8 0.00 0.00 0.00 84 1010.9
20260505111517 11 327 0.0 3.2 0.00 0.00 0.00 85 1010.8
20260505111009 11 29 0.0 0.0 0.00 0.00 0.00 85 1010.7
20260505110508 10 40 0.0 0.0 0.00 0.00 0.00 84 1011.2
20260505102006 10 71 0.0 0.0 0.00 0.00 0.00 81 1011.2
20260505101521 10 71 0.0 0.0 0.00 0.00 0.00 81 1011.2
20260505101006 10 71 0.0 0.0 0.00 0.00 0.00 81 1011.1
20260505100508 10 71 0.0 0.0 0.00 0.00 0.00 81 1011.0
20260505100024 10 71 0.0 0.0 0.00 0.00 0.00 81 1010.9
20260505095507 10 71 0.0 0.0 0.00 0.00 0.00 80 1011.0
20260505095008 10 67 0.0 0.0 0.00 0.00 0.00 80 1011.0
20260505094524 10 66 0.0 0.0 0.00 0.00 0.00 80 1010.8
20260505094006 10 66 0.0 0.0 0.00 0.00 0.00 79 1010.8
20260505093507 10 66 0.0 0.0 0.00 0.00 0.00 78 1010.8
20260505093025 10 66 0.0 0.0 0.00 0.00 0.00 78 1010.8
20260505092507 10 66 0.0 0.0 0.00 0.00 0.00 78 1010.6
20260505092007 10 66 0.0 0.0 0.00 0.00 0.00 78 1010.6
20260505091529 10 66 0.0 0.0 0.00 0.00 0.00 78 1010.5
20260505091009 10 66 0.0 0.0 0.00 0.00 0.00 78 1010.5
20260505090504 10 66 0.0 0.0 0.00 0.00 0.00 78 1010.4
20260505090034 10 66 0.0 0.0 0.00 0.00 0.00 78 1010.3
20260505085510 10 66 0.0 0.0 0.00 0.00 0.00 78 1010.2
20260505085008 10 66 0.0 0.0 0.00 0.00 0.00 77 1010.3
20260505084520 10 66 0.0 0.0 0.00 0.00 0.00 77 1010.4
20260505084008 10 66 0.0 0.0 0.00 0.00 0.00 76 1010.4
20260505083507 10 66 0.0 0.0 0.00 0.00 0.00 76 1010.3
20260505083026 10 66 0.0 0.0 0.00 0.00 0.00 75 1010.4
20260505082510 10 66 0.0 0.0 0.00 0.00 0.00 76 1010.3
20260505082010 10 66 0.0 0.0 0.00 0.00 0.00 76 1010.3
20260505081528 10 66 0.0 0.0 0.00 0.00 0.00 76 1010.3
20260505081007 10 66 0.0 0.0 0.00 0.00 0.00 76 1010.4
20260505080507 10 66 0.0 0.0 0.00 0.00 0.00 75 1010.5
20260505080033 11 66 0.0 0.0 0.00 0.00 0.00 75 1010.5
20260505075509 11 66 0.0 0.0 0.00 0.00 0.00 75 1010.4
20260505075009 11 66 0.0 0.0 0.00 0.00 0.00 75 1010.4
20260505074520 11 66 0.0 0.0 0.00 0.00 0.00 75 1010.4
20260505074008 11 66 0.0 0.0 0.00 0.00 0.00 75 1010.3
20260505073508 11 66 0.0 0.0 0.00 0.00 0.00 74 1010.3
20260505073042 11 66 0.0 0.0 0.00 0.00 0.00 73 1010.3
20260505072511 11 66 0.0 0.0 0.00 0.00 0.00 73 1010.3
20260505072008 11 66 0.0 0.0 0.00 0.00 0.00 73 1010.2
20260505071525 11 66 0.0 0.0 0.00 0.00 0.00 72 1010.3
20260505071008 11 66 0.0 0.0 0.00 0.00 0.00 72 1010.3
20260505070510 11 66 0.0 0.0 0.00 0.00 0.00 72 1010.3
20260505070027 11 66 0.0 0.0 0.00 0.00 0.00 72 1010.4
20260505065508 11 66 0.0 3.2 0.00 0.00 0.00 71 1010.4
20260505065008 11 66 0.0 3.2 0.00 0.00 0.00 71 1010.3
20260505064539 11 66 0.0 3.2 0.00 0.00 0.00 72 1010.3
20260505064008 11 66 0.0 3.2 0.00 0.00 0.00 71 1010.3
20260505063509 11 94 0.0 0.0 0.00 0.00 0.00 71 1010.3
20260505063022 11 94 0.0 0.0 0.00 0.00 0.00 70 1010.4
20260505062511 12 94 0.0 1.6 0.00 0.00 0.00 70 1010.4
20260505062015 12 94 0.0 1.6 0.00 0.00 0.00 70 1010.4
20260505061540 12 94 0.0 1.6 0.00 0.00 0.00 69 1010.5
20260505061007 12 94 0.0 3.2 0.00 0.00 0.00 69 1010.5
20260505060511 12 94 0.0 3.2 0.00 0.00 0.00 70 1010.5
20260505060028 12 94 0.0 1.6 0.00 0.00 0.00 69 1010.5
20260505055512 12 94 0.0 3.2 0.00 0.00 0.00 69 1010.4
20260505055010 12 94 0.0 3.2 0.00 0.00 0.00 68 1010.6
20260505054551 12 94 0.0 0.0 0.00 0.00 0.00 67 1010.5
20260505054012 12 94 0.0 1.6 0.00 0.00 0.00 67 1010.4
20260505053512 12 94 0.0 1.6 0.00 0.00 0.00 67 1010.6
20260505053005 12 94 0.0 0.0 0.00 0.00 0.00 66 1010.6
20260505052503 12 94 0.0 1.6 0.00 0.00 0.00 65 1010.7
20260505052003 12 94 0.0 1.6 0.00 0.00 0.00 65 1010.8
20260505051506 12 94 0.0 1.6 0.00 0.00 0.00 64 1010.8
20260505051006 12 94 0.0 1.6 0.00 0.00 0.00 65 1010.8
20260505050503 12 94 0.0 1.6 0.00 0.00 0.00 65 1010.9
20260505041508 13 48 0.0 3.2 0.00 0.00 0.00 62 1010.8
20260505041002 13 48 0.0 3.2 0.00 0.00 0.00 61 1010.8
20260505040503 13 54 0.0 0.0 0.00 0.00 0.00 60 1010.9
20260505040005 13 54 0.0 1.6 0.00 0.00 0.00 61 1010.9
20260505035502 13 55 0.0 1.6 0.00 0.00 0.00 60 1010.8
20260505035001 13 55 0.0 1.6 0.00 0.00 0.00 59 1010.8
20260505034509 13 54 0.0 1.6 0.00 0.00 0.00 58 1010.9
20260505034006 13 54 0.0 1.6 0.00 0.00 0.00 58 1010.9
20260505033506 13 54 0.0 0.0 0.00 0.00 0.00 59 1010.9
20260505033012 13 55 0.0 0.0 0.00 0.00 0.00 58 1011.0
20260505032504 13 55 0.0 1.6 0.00 0.00 0.00 58 1011.0
20260505032007 13 54 0.0 3.2 0.00 0.00 0.00 57 1011.0
20260505031512 13 54 0.0 3.2 0.00 0.00 0.00 57 1011.1
20260505031002 14 56 0.0 1.6 0.00 0.00 0.00 57 1011.1
20260505030502 14 56 0.0 1.6 0.00 0.00 0.00 54 1011.1
20260505030004 14 56 0.0 1.6 0.00 0.00 0.00 55 1011.2
20260505025504 14 56 0.0 1.6 0.00 0.00 0.00 55 1011.1
20260505025004 15 56 0.0 3.2 0.00 0.00 0.00 55 1011.2
20260505024515 15 56 0.0 3.2 0.00 0.00 0.00 54 1011.2
20260505024003 15 60 0.0 3.2 0.00 0.00 0.00 54 1011.1
20260505023503 15 74 0.0 1.6 0.00 0.00 0.00 54 1011.1
20260505023012 15 74 0.0 3.2 0.00 0.00 0.00 52 1011.2
20260505022503 15 74 0.0 3.2 0.00 0.00 0.00 52 1011.1
20260505022006 15 122 0.0 0.0 0.00 0.00 0.00 52 1011.1
20260505021519 15 122 0.0 0.0 0.00 0.00 0.00 51 1011.2
20260505021011 16 122 0.0 0.0 0.00 0.00 0.00 52 1011.2
20260505020506 16 122 0.0 0.0 0.00 0.00 0.00 51 1011.3
20260505020006 16 122 0.0 0.0 0.00 0.00 0.00 50 1011.2
20260505015503 16 122 0.0 0.0 0.00 0.00 0.00 51 1011.1
20260505015003 16 122 0.0 0.0 0.00 0.00 0.00 49 1011.1
20260505014504 16 122 0.0 0.0 0.00 0.00 0.00 48 1011.0
20260505014003 16 122 0.0 0.0 0.00 0.00 0.00 49 1011.1
20260505013504 17 122 0.0 0.0 0.00 0.00 0.00 49 1011.0
20260505013007 17 122 0.0 0.0 0.00 0.00 0.00 46 1011.0
20260505012503 17 122 0.0 1.6 0.00 0.00 0.00 46 1010.9
20260505012002 17 122 0.0 1.6 0.00 0.00 0.00 45 1010.9
20260505011520 17 122 0.0 1.6 0.00 0.00 0.00 45 1010.7
20260505011006 17 122 0.0 1.6 0.00 0.00 0.00 44 1010.7
20260505010513 17 122 0.0 1.6 0.00 0.00 0.00 43 1010.6
20260505010017 18 122 0.0 1.6 0.00 0.00 0.00 43 1010.5
20260505005504 18 122 0.0 3.2 0.00 0.00 0.00 43 1010.4
20260505005007 18 122 0.0 3.2 0.00 0.00 0.00 42 1010.5
20260505004541 18 112 0.0 3.2 0.00 0.00 0.00 42 1010.3
20260505004003 18 175 0.0 3.2 0.00 0.00 0.00 42 1010.3
20260505003502 18 175 0.0 4.8 0.00 0.00 0.00 42 1010.2
20260505003006 18 175 0.0 6.4 0.00 0.00 0.00 41 1010.1